User: anonymous
Location: Bothell
(47.7630°N, 122.2040°W)
Time: 09:06:37
(UTC-07:00)
Language:

Oscar 16 - Orbit

View from above orbital plane
View from above orbital plane
View from above satellite
View from above satellite

Ground track
Ground track

The orbit data is extracted from the following two-line orbital elements,

1 20439U 90005D   14202.81821655  .00000011  00000-0  20219-4 0   729
2 20439 098.5076 139.5043 0011822 061.4625 355.8764 14.32369263279441
Epoch (UTC): 21 July 2014 19:38:13
Eccentricity: 0.0011822
inclination: 98.5076°
perigee height: 775 km
apogee height: 792 km
right ascension of ascending node: 139.5043°
argument of perigee: 61.4625°
revolutions per day: 14.32369263
mean anomaly at epoch: 355.8764°
orbit number at epoch: 27944

The dashed part of the orbit path shows where the satellite is in the earth's shadow,  

DLR